Time,TemperatureF,DewpointF,PressureIn,WindDirection,WindDirectionDegrees,WindSpeedMPH,WindSpeedGustMPH,Humidity,HourlyPrecipIn,Conditions,Clouds,dailyrainin,SoftwareType,DateUTC
2013-08-22 00:13:00,73.7,65.0,29.97,East,89,1.0,3.0,75,0.00,,,0.00,weatherlink.com 1.10,2013-08-22 05:13:00,
2013-08-22 00:28:00,72.6,65.0,29.99,NW,316,0.0,3.0,77,0.00,,,0.00,weatherlink.com 1.10,2013-08-22 05:28:00,
2013-08-22 00:43:00,72.0,65.0,30.00,WNW,283,0.0,2.0,78,0.00,,,0.00,weatherlink.com 1.10,2013-08-22 05:43:00,
2013-08-22 00:58:00,71.1,64.0,30.00,WNW,292,0.0,1.0,79,0.00,,,0.00,weatherlink.com 1.10,2013-08-22 05:58:00,
2013-08-22 01:13:00,70.4,65.0,30.00,WNW,292,0.0,1.0,82,0.00,,,0.00,weatherlink.com 1.10,2013-08-22 06:13:00,
2013-08-22 01:28:00,70.1,65.0,30.00,WNW,292,0.0,1.0,83,0.00,,,0.00,weatherlink.com 1.10,2013-08-22 06:28:00,
2013-08-22 01:43:00,70.0,65.0,30.00,WNW,292,0.0,1.0,83,0.00,,,0.00,weatherlink.com 1.10,2013-08-22 06:43:00,
2013-08-22 01:58:00,70.0,65.0,29.99,WNW,292,0.0,1.0,84,0.00,,,0.00,weatherlink.com 1.10,2013-08-22 06:58:00,
2013-08-22 02:13:00,69.7,65.0,30.00,WNW,292,0.0,2.0,85,0.00,,,0.00,weatherlink.com 1.10,2013-08-22 07:13:00,
2013-08-22 02:28:00,69.5,65.0,29.99,WNW,292,0.0,1.0,86,0.00,,,0.00,weatherlink.com 1.10,2013-08-22 07:28:00,
2013-08-22 02:43:00,69.2,65.0,29.98,WNW,292,0.0,0.0,86,0.00,,,0.00,weatherlink.com 1.10,2013-08-22 07:43:00,
2013-08-22 02:58:00,68.7,65.0,29.98,WNW,292,0.0,0.0,87,0.00,,,0.00,weatherlink.com 1.10,2013-08-22 07:58:00,
2013-08-22 03:13:00,68.2,65.0,29.98,WNW,292,0.0,1.0,88,0.00,,,0.00,weatherlink.com 1.10,2013-08-22 08:13:00,
2013-08-22 03:28:00,67.9,64.0,29.98,WNW,292,0.0,0.0,88,0.00,,,0.00,weatherlink.com 1.10,2013-08-22 08:28:00,
2013-08-22 03:43:00,67.9,65.0,29.98,WNW,292,0.0,0.0,89,0.00,,,0.00,weatherlink.com 1.10,2013-08-22 08:43:00,
2013-08-22 03:59:00,68.3,65.0,29.98,WNW,292,0.0,0.0,89,0.00,,,0.00,weatherlink.com 1.10,2013-08-22 08:59:00,
2013-08-22 04:13:00,68.7,65.0,29.98,WNW,292,0.0,1.0,88,0.00,,,0.00,weatherlink.com 1.10,2013-08-22 09:13:00,
2013-08-22 04:28:00,69.0,65.0,29.99,WNW,292,0.0,0.0,88,0.00,,,0.00,weatherlink.com 1.10,2013-08-22 09:28:00,
2013-08-22 04:43:00,69.1,65.0,29.98,WNW,292,0.0,0.0,86,0.00,,,0.00,weatherlink.com 1.10,2013-08-22 09:43:00,
2013-08-22 04:58:00,69.5,65.0,29.98,WNW,292,0.0,0.0,86,0.00,,,0.00,weatherlink.com 1.10,2013-08-22 09:58:00,
2013-08-22 05:28:00,68.9,65.0,29.97,WNW,292,0.0,0.0,87,0.00,,,0.00,weatherlink.com 1.10,2013-08-22 10:28:00,
2013-08-22 05:43:00,68.5,65.0,29.97,WNW,292,0.0,0.0,88,0.00,,,0.00,weatherlink.com 1.10,2013-08-22 10:43:00,
2013-08-22 07:28:00,69.2,67.0,29.98,WNW,292,0.0,0.0,91,0.00,,,0.00,weatherlink.com 1.10,2013-08-22 12:28:00,
2013-08-22 07:43:00,70.0,67.0,29.98,WNW,292,0.0,0.0,90,0.00,,,0.00,weatherlink.com 1.10,2013-08-22 12:43:00,
2013-08-22 07:58:00,71.0,68.0,29.98,WNW,292,0.0,0.0,90,0.00,,,0.00,weatherlink.com 1.10,2013-08-22 12:58:00,
2013-08-22 08:13:00,71.7,68.0,29.98,WNW,292,0.0,0.0,89,0.00,,,0.00,weatherlink.com 1.10,2013-08-22 13:13:00,
2013-08-22 08:28:00,72.0,68.0,29.98,WNW,292,0.0,0.0,88,0.00,,,0.00,weatherlink.com 1.10,2013-08-22 13:28:00,
2013-08-22 08:43:00,72.2,69.0,29.98,WNW,292,0.0,0.0,88,0.00,,,0.00,weatherlink.com 1.10,2013-08-22 13:43:00,
2013-08-22 08:58:00,72.3,68.0,30.00,WNW,292,0.0,1.0,87,0.00,,,0.00,weatherlink.com 1.10,2013-08-22 13:58:00,
2013-08-22 09:13:00,72.4,68.0,30.01,WNW,296,0.0,2.0,87,0.00,,,0.00,weatherlink.com 1.10,2013-08-22 14:13:00,
2013-08-22 09:28:00,72.1,68.0,30.01,NNE,29,0.0,1.0,88,0.00,,,0.00,weatherlink.com 1.10,2013-08-22 14:28:00,
2013-08-22 09:43:00,71.9,68.0,30.01,NNE,29,0.0,2.0,88,0.00,,,0.00,weatherlink.com 1.10,2013-08-22 14:43:00,
2013-08-22 09:58:00,71.5,68.0,30.02,NNE,29,0.0,2.0,89,0.00,,,0.00,weatherlink.com 1.10,2013-08-22 14:58:00,
2013-08-22 10:13:00,71.2,68.0,30.04,NW,306,0.0,1.0,90,0.00,,,0.00,weatherlink.com 1.10,2013-08-22 15:13:00,
2013-08-22 10:29:00,70.6,68.0,30.04,North,349,0.0,4.0,92,0.04,,,0.04,weatherlink.com 1.10,2013-08-22 15:29:00,
2013-08-22 10:44:00,68.8,66.0,30.08,NNE,20,3.0,15.0,91,0.16,,,0.16,weatherlink.com 1.10,2013-08-22 15:44:00,
2013-08-22 10:59:00,66.7,65.0,30.09,NNE,23,2.0,7.0,94,0.39,,,0.39,weatherlink.com 1.10,2013-08-22 15:59:00,
2013-08-22 11:14:00,66.1,65.0,30.10,ENE,73,4.0,6.0,95,0.52,,,0.52,weatherlink.com 1.10,2013-08-22 16:14:00,
2013-08-22 11:29:00,66.0,65.0,30.10,North,9,2.0,5.0,96,0.53,,,0.57,weatherlink.com 1.10,2013-08-22 16:29:00,
2013-08-22 11:44:00,65.9,65.0,30.10,NNE,15,0.0,3.0,96,0.46,,,0.62,weatherlink.com 1.10,2013-08-22 16:44:00,
2013-08-22 11:59:00,65.6,65.0,30.08,NNE,16,0.0,1.0,96,0.27,,,0.67,weatherlink.com 1.10,2013-08-22 16:59:00,
2013-08-22 12:14:00,65.7,65.0,30.08,NNE,16,0.0,0.0,96,0.20,,,0.72,weatherlink.com 1.10,2013-08-22 17:14:00,
2013-08-22 12:29:00,65.8,65.0,30.07,NNE,16,0.0,0.0,97,0.16,,,0.73,weatherlink.com 1.10,2013-08-22 17:29:00,
2013-08-22 12:44:00,66.1,65.0,30.06,NNE,16,0.0,0.0,97,0.10,,,0.73,weatherlink.com 1.10,2013-08-22 17:44:00,
2013-08-22 12:59:00,66.5,66.0,30.06,NNE,16,0.0,1.0,97,0.05,,,0.73,weatherlink.com 1.10,2013-08-22 17:59:00,
2013-08-22 13:14:00,66.9,66.0,30.06,NNE,16,0.0,1.0,97,0.01,,,0.73,weatherlink.com 1.10,2013-08-22 18:14:00,
2013-08-22 13:29:00,67.5,67.0,30.05,NNE,16,0.0,2.0,97,0.00,,,0.73,weatherlink.com 1.10,2013-08-22 18:29:00,
2013-08-22 13:44:00,68.0,67.0,30.05,NW,324,1.0,3.0,97,0.00,,,0.73,weatherlink.com 1.10,2013-08-22 18:44:00,
2013-08-22 13:59:00,68.6,68.0,30.04,NW,326,1.0,4.0,96,0.00,,,0.73,weatherlink.com 1.10,2013-08-22 18:59:00,
2013-08-22 14:14:00,69.1,68.0,30.04,NW,315,0.0,3.0,96,0.00,,,0.73,weatherlink.com 1.10,2013-08-22 19:14:00,
2013-08-22 14:29:00,69.7,69.0,30.03,NW,317,1.0,6.0,96,0.00,,,0.73,weatherlink.com 1.10,2013-08-22 19:29:00,
2013-08-22 14:44:00,70.4,69.0,30.03,NNE,14,0.0,5.0,95,0.00,,,0.73,weatherlink.com 1.10,2013-08-22 19:44:00,
2013-08-22 14:59:00,70.9,69.0,30.02,North,355,2.0,4.0,94,0.00,,,0.73,weatherlink.com 1.10,2013-08-22 19:59:00,
2013-08-22 15:14:00,71.5,69.0,30.02,North,355,0.0,5.0,93,0.00,,,0.73,weatherlink.com 1.10,2013-08-22 20:14:00,
2013-08-22 15:29:00,71.9,70.0,30.01,East,93,0.0,3.0,92,0.00,,,0.73,weatherlink.com 1.10,2013-08-22 20:29:00,
2013-08-22 15:44:00,72.4,70.0,30.01,NNW,338,0.0,3.0,92,0.00,,,0.73,weatherlink.com 1.10,2013-08-22 20:44:00,
2013-08-22 15:59:00,72.8,70.0,30.00,ENE,69,0.0,3.0,90,0.00,,,0.73,weatherlink.com 1.10,2013-08-22 20:59:00,
2013-08-22 16:14:00,73.4,71.0,30.00,NNW,331,2.0,4.0,91,0.00,,,0.73,weatherlink.com 1.10,2013-08-22 21:14:00,
2013-08-22 16:29:00,73.8,70.0,29.99,North,5,3.0,7.0,88,0.00,,,0.73,weatherlink.com 1.10,2013-08-22 21:29:00,
2013-08-22 16:44:00,74.3,70.0,30.01,SSE,168,1.0,7.0,86,0.00,,,0.73,weatherlink.com 1.10,2013-08-22 21:44:00,
2013-08-22 16:59:00,74.6,71.0,30.02,ESE,121,0.0,2.0,87,0.00,,,0.73,weatherlink.com 1.10,2013-08-22 21:59:00,
2013-08-22 17:14:00,74.6,70.0,30.03,ESE,121,0.0,1.0,85,0.00,,,0.73,weatherlink.com 1.10,2013-08-22 22:14:00,
2013-08-22 17:29:00,74.5,70.0,30.03,ESE,121,0.0,0.0,85,0.00,,,0.73,weatherlink.com 1.10,2013-08-22 22:29:00,
2013-08-22 17:44:00,75.0,71.0,30.03,ESE,121,0.0,0.0,86,0.00,,,0.73,weatherlink.com 1.10,2013-08-22 22:44:00,
2013-08-22 17:59:00,75.0,70.0,30.03,ESE,121,0.0,0.0,85,0.00,,,0.73,weatherlink.com 1.10,2013-08-22 22:59:00,
2013-08-22 18:14:00,74.7,70.0,30.03,ESE,121,0.0,0.0,85,0.00,,,0.73,weatherlink.com 1.10,2013-08-22 23:14:00,
2013-08-22 18:29:00,73.8,70.0,30.04,ESE,121,0.0,1.0,88,0.00,,,0.73,weatherlink.com 1.10,2013-08-22 23:29:00,
2013-08-22 18:44:00,73.6,70.0,30.04,ESE,121,0.0,0.0,89,0.00,,,0.73,weatherlink.com 1.10,2013-08-22 23:44:00,
2013-08-22 18:59:00,73.4,70.0,30.05,ESE,121,0.0,0.0,90,0.00,,,0.73,weatherlink.com 1.10,2013-08-22 23:59:00,
2013-08-22 19:14:00,73.1,70.0,30.05,ESE,121,0.0,0.0,91,0.00,,,0.73,weatherlink.com 1.10,2013-08-23 00:14:00,
2013-08-22 19:29:00,72.3,70.0,30.06,ESE,118,0.0,1.0,91,0.00,,,0.73,weatherlink.com 1.10,2013-08-23 00:29:00,
2013-08-22 19:44:00,71.7,69.0,30.06,ESE,118,0.0,0.0,92,0.00,,,0.73,weatherlink.com 1.10,2013-08-23 00:44:00,
2013-08-22 19:59:00,70.8,68.0,30.07,ESE,118,0.0,0.0,92,0.00,,,0.73,weatherlink.com 1.10,2013-08-23 00:59:00,
2013-08-22 20:14:00,69.9,68.0,30.07,ESE,118,0.0,0.0,93,0.00,,,0.73,weatherlink.com 1.10,2013-08-23 01:14:00,
2013-08-22 20:29:00,68.7,65.0,30.07,NNW,345,0.0,4.0,87,0.00,,,0.73,weatherlink.com 1.10,2013-08-23 01:29:00,
2013-08-22 20:44:00,68.0,63.0,30.08,NNW,345,2.0,2.0,83,0.00,,,0.73,weatherlink.com 1.10,2013-08-23 01:44:00,
2013-08-22 20:59:00,67.4,61.0,30.09,NW,324,0.0,1.0,80,0.00,,,0.73,weatherlink.com 1.10,2013-08-23 01:59:00,
2013-08-22 21:14:00,66.5,60.0,30.09,NW,324,0.0,1.0,80,0.00,,,0.73,weatherlink.com 1.10,2013-08-23 02:14:00,
2013-08-22 21:29:00,66.4,61.0,30.09,NW,324,0.0,0.0,83,0.00,,,0.73,weatherlink.com 1.10,2013-08-23 02:29:00,
2013-08-22 21:44:00,65.4,61.0,30.10,NW,324,0.0,0.0,86,0.00,,,0.73,weatherlink.com 1.10,2013-08-23 02:44:00,
2013-08-22 21:59:00,63.5,60.0,30.10,NW,324,0.0,0.0,88,0.00,,,0.73,weatherlink.com 1.10,2013-08-23 02:59:00,
2013-08-22 22:14:00,62.7,56.0,30.10,NW,324,0.0,0.0,78,0.00,,,0.73,weatherlink.com 1.10,2013-08-23 03:14:00,
2013-08-22 22:29:00,63.6,59.0,30.11,NW,324,0.0,0.0,86,0.00,,,0.73,weatherlink.com 1.10,2013-08-23 03:29:00,
2013-08-22 22:44:00,62.5,58.0,30.11,NW,324,0.0,0.0,86,0.00,,,0.73,weatherlink.com 1.10,2013-08-23 03:44:00,
2013-08-22 22:59:00,61.6,58.0,30.11,NW,324,0.0,0.0,89,0.00,,,0.73,weatherlink.com 1.10,2013-08-23 03:59:00,
2013-08-22 23:14:00,61.0,58.0,30.11,NW,324,0.0,0.0,91,0.00,,,0.73,weatherlink.com 1.10,2013-08-23 04:14:00,
2013-08-22 23:29:00,60.4,58.0,30.11,NW,324,0.0,0.0,91,0.00,,,0.73,weatherlink.com 1.10,2013-08-23 04:29:00,
2013-08-22 23:44:00,59.7,57.0,30.11,NW,324,0.0,0.0,92,0.00,,,0.73,weatherlink.com 1.10,2013-08-23 04:44:00,